EW9824 Weather Reports


time (UTC)temp
C
wind
direction
speed
KPH
gust
KPH
rain 1hr
cm
rain 24hr
cm
rain mn
cm
humidity
%
barometer
mb
20260509043106 11 288 1.6 12.9 0.00 0.00 0.00 69 1025.0
20260509041531 11 169 0.0 8.0 0.00 0.00 0.00 66 1024.8
20260509040029 12 336 0.0 3.2 0.00 0.00 0.00 63 1024.6
20260509034530 12 262 1.6 9.7 0.00 0.00 0.00 61 1024.4
20260509033032 13 235 3.2 14.5 0.00 0.00 0.00 60 1024.3
20260509031531 13 244 6.4 17.7 0.00 0.00 0.00 58 1024.1
20260509030032 14 248 4.8 14.5 0.00 0.00 0.00 55 1023.9
20260509024529 15 256 8.0 25.7 0.00 0.00 0.00 53 1023.9
20260509023032 15 257 9.7 22.5 0.00 0.00 0.00 50 1023.8
20260509021639 16 261 9.7 20.9 0.00 0.00 0.00 48 1023.7
20260509021626 16 264 11.3 27.4 0.00 0.00 0.00 46 1023.6
20260509013039 17 263 11.3 29.0 0.00 0.00 0.00 43 1023.5
20260509011540 17 253 14.5 29.0 0.00 0.00 0.00 41 1023.4
20260509004541 18 261 14.5 30.6 0.00 0.00 0.00 37 1023.3
20260509003038 18 265 16.1 30.6 0.00 0.00 0.00 35 1023.2
20260509001537 19 263 12.9 32.2 0.00 0.00 0.00 34 1023.0
20260509000041 20 260 12.9 37.0 0.00 0.00 0.00 33 1022.8
20260508234540 20 264 12.9 32.2 0.00 0.00 0.00 32 1022.8
20260508233030 20 266 12.9 38.6 0.00 0.00 0.00 31 1022.7
20260508231536 20 267 14.5 32.2 0.00 0.00 0.00 30 1022.7
20260508230029 20 264 12.9 30.6 0.00 0.00 0.00 29 1022.6
20260508224533 20 261 12.9 29.0 0.00 0.00 0.00 28 1022.5
20260508223029 21 271 12.9 30.6 0.00 0.00 0.00 27 1022.4
20260508221602 21 265 9.7 29.0 0.00 0.00 0.00 27 1022.4
20260508220028 21 267 6.4 16.1 0.00 0.00 0.00 27 1022.4
20260508214531 20 265 9.7 22.5 0.00 0.00 0.00 26 1022.5
20260508213145 20 261 16.1 37.0 0.00 0.00 0.00 26 1022.5
20260508211530 20 252 12.9 30.6 0.00 0.00 0.00 25 1022.5
20260508210145 20 243 12.9 30.6 0.00 0.00 0.00 24 1022.5
20260508204533 18 240 11.3 24.1 0.00 0.00 0.00 28 1022.4
20260508203116 17 256 14.5 40.2 0.00 0.00 0.00 28 1022.4
20260508201605 18 261 14.5 30.6 0.00 0.00 0.00 28 1022.3
20260508200106 18 250 14.5 33.8 0.00 0.00 0.00 28 1022.3
20260508193145 19 251 14.5 29.0 0.00 0.00 0.00 33 1022.1
20260508191608 18 268 11.3 27.4 0.00 0.00 0.00 36 1022.0
20260508190029 17 286 11.3 33.8 0.00 0.00 0.00 36 1021.9
20260508184531 16 290 11.3 29.0 0.00 0.00 0.00 43 1021.9
20260508183030 15 348 6.4 12.9 0.00 0.00 0.00 49 1021.9
20260508181531 13 357 6.4 12.9 0.00 0.00 0.00 54 1021.7
20260508180032 12 330 3.2 11.3 0.00 0.00 0.00 56 1021.7
20260508174541 12 3 4.8 11.3 0.00 0.00 0.00 57 1021.8
20260508173107 12 4 8.0 16.1 0.00 0.00 0.00 58 1021.4
20260508171532 12 25 8.0 19.3 0.00 0.00 0.00 61 1021.3
20260508170030 11 25 8.0 17.7 0.00 0.00 0.00 62 1021.3
20260508164607 11 29 12.9 25.7 0.00 0.00 0.00 62 1021.2
20260508163030 12 30 11.3 22.5 0.00 0.00 0.00 63 1021.4
20260508161529 12 1 12.9 25.7 0.00 0.00 0.00 63 1021.4
20260508160031 12 357 12.9 24.1 0.00 0.00 0.00 63 1021.5
20260508154533 12 355 14.5 25.7 0.00 0.00 0.00 63 1021.5
20260508153031 13 354 14.5 27.4 0.00 0.00 0.00 64 1021.3
20260508151602 13 340 12.9 27.4 0.00 0.00 0.00 63 1021.2
20260508144531 12 325 12.9 27.4 0.00 0.00 0.00 60 1020.8
20260508143032 12 325 9.7 22.5 0.00 0.00 0.00 59 1020.5
20260508141530 12 323 11.3 24.1 0.00 0.00 0.00 59 1020.3
20260508140031 12 310 8.0 20.9 0.00 0.00 0.00 60 1020.2
20260508134532 12 316 8.0 20.9 0.00 0.00 0.00 61 1020.1
20260508133032 12 316 9.7 20.9 0.00 0.00 0.00 63 1020.0
20260508131607 11 315 9.7 19.3 0.00 0.00 0.00 66 1019.9
20260508124533 6 337 3.2 11.3 0.00 0.00 0.00 79 1019.5
20260508123034 6 131 1.6 6.4 0.00 0.00 0.00 78 1019.4
20260508121530 6 160 3.2 6.4 0.00 0.00 0.00 77 1019.3
20260508120031 6 156 1.6 6.4 0.00 0.00 0.00 76 1019.2
20260508114606 6 173 3.2 8.0 0.00 0.00 0.00 74 1019.2
20260508113032 6 165 1.6 8.0 0.00 0.00 0.00 72 1019.1
20260508111526 6 159 3.2 11.3 0.00 0.00 0.00 70 1019.1
20260508110031 6 174 3.2 6.4 0.00 0.00 0.00 69 1018.9
20260508104529 6 170 3.2 6.4 0.00 0.00 0.00 69 1019.0
20260508103107 6 169 3.2 8.0 0.00 0.00 0.00 70 1019.0
20260508101542 6 151 6.4 11.3 0.00 0.00 0.00 71 1019.0
20260508094532 6 162 3.2 8.0 0.00 0.00 0.00 71 1019.0
20260508093108 6 151 4.8 9.7 0.00 0.00 0.00 71 1018.9
20260508091530 6 151 3.2 9.7 0.00 0.00 0.00 71 1018.9
20260508090105 6 165 4.8 11.3 0.00 0.00 0.00 71 1019.0
20260508084532 5 173 3.2 11.3 0.00 0.00 0.00 72 1018.9
20260508083031 6 171 3.2 8.0 0.00 0.00 0.00 70 1018.9
20260508081534 6 177 3.2 9.7 0.00 0.00 0.00 70 1019.0
20260508080032 6 178 3.2 6.4 0.00 0.00 0.00 67 1019.0
20260508074606 6 166 3.2 6.4 0.00 0.00 0.00 65 1019.0
20260508073029 7 173 4.8 8.0 0.00 0.00 0.00 64 1019.1
20260508071532 6 151 3.2 11.3 0.00 0.00 0.00 66 1019.1
20260508070029 6 189 1.6 6.4 0.00 0.00 0.00 65 1019.2
20260508064530 7 146 1.6 6.4 0.00 0.00 0.00 62 1019.3
20260508063032 8 194 3.2 9.7 0.00 0.00 0.00 59 1019.3
20260508061530 9 179 3.2 8.0 0.00 0.00 0.00 53 1019.5
20260508060105 10 178 3.2 6.4 0.00 0.00 0.00 49 1019.6
20260508053030 13 353 8.0 12.9 0.00 0.00 0.00 42 1019.6
20260508051606 13 357 6.4 12.9 0.00 0.00 0.00 39 1019.6
20260508050031 13 348 6.4 14.5 0.00 0.00 0.00 38 1019.6
20260508044532 13 8 11.3 17.7 0.00 0.00 0.00 37 1019.6